Voltar ao catálogo

BS-3N

AtivoComunicaçõesGEO
NORAD 23176·PAYLOAD·🇯🇵 Japan

Lançado Jul 8, 1994 de Guiana Space Centre

Loading…

TLE

AtualizadoSource: Space-Track

Época: Sep 14, 2026, 05:45 UTC

1 23176U 94040B   26257.23989317 -.00000191  00000-0  00000-0 0  9992
2 23176  13.4774  19.2782 0002119  38.5993 317.8414  0.99151778103184

Acompanhe BS-3N em tempo real com AllMySat

Download on the App Store